Saint Bonnet de Bellac- Haute Vienne - France
Donnes mto: samedi, 25/08/2012
Date Horaire Temp. E. Hum. E. P.atmo. Pluie Vent Direction Direction Ensoleilleme Solaire P. de rose Temp au vent Rafales
25/08/2012 00:00 19,8 C 72 % 1010,6 hPa 0,0 mm 7,6 km/h (2 Bft) O-SO 247 0 min 0 W/m 14,6 C 19,8 C 10,8 km/h (2 Bft)
25/08/2012 00:10 19,8 C 73 % 1010,8 hPa 0,0 mm 2,5 km/h (1 Bft) O-SO 247 0 min 0 W/m 14,8 C 19,8 C 4,3 km/h (1 Bft)
25/08/2012 00:20 19,7 C 73 % 1010,6 hPa 0,0 mm 7,6 km/h (2 Bft) S-SO 202 0 min 0 W/m 14,7 C 19,7 C 7,6 km/h (2 Bft)
25/08/2012 00:30 19,6 C 74 % 1010,8 hPa 0,0 mm 2,5 km/h (1 Bft) S-SO 202 0 min 0 W/m 14,8 C 19,6 C 4,0 km/h (1 Bft)
25/08/2012 00:40 19,4 C 75 % 1010,6 hPa 0,0 mm 5,8 km/h (2 Bft) SO 225 0 min 0 W/m 14,8 C 19,4 C 7,2 km/h (2 Bft)
25/08/2012 00:50 19,3 C 75 % 1010,8 hPa 0,0 mm 3,2 km/h (1 Bft) SO 225 0 min 0 W/m 14,8 C 19,3 C 6,1 km/h (2 Bft)
25/08/2012 01:00 19,3 C 75 % 1010,9 hPa 0,0 mm 5,8 km/h (2 Bft) SO 225 0 min 0 W/m 14,8 C 19,3 C 10,8 km/h (2 Bft)
25/08/2012 01:10 19,3 C 75 % 1010,8 hPa 0,0 mm 4,0 km/h (1 Bft) SO 225 0 min 0 W/m 14,8 C 19,3 C 8,3 km/h (2 Bft)
25/08/2012 01:20 19,3 C 75 % 1010,8 hPa 0,0 mm 7,9 km/h (2 Bft) SO 225 0 min 0 W/m 14,8 C 19,3 C 9,7 km/h (2 Bft)
25/08/2012 01:30 19,1 C 75 % 1010,8 hPa 0,0 mm 8,3 km/h (2 Bft) SO 225 0 min 0 W/m 14,6 C 19,1 C 13,3 km/h (3 Bft)
25/08/2012 01:40 19,1 C 76 % 1010,7 hPa 0,0 mm 5,0 km/h (1 Bft) SO 225 0 min 0 W/m 14,8 C 19,1 C 9,0 km/h (2 Bft)
25/08/2012 01:50 18,9 C 77 % 1010,8 hPa 0,0 mm 6,8 km/h (2 Bft) S-SO 202 0 min 0 W/m 14,8 C 18,9 C 8,3 km/h (2 Bft)
25/08/2012 02:00 18,8 C 77 % 1010,8 hPa 0,0 mm 5,4 km/h (2 Bft) S-SO 202 0 min 0 W/m 14,7 C 18,8 C 7,9 km/h (2 Bft)
25/08/2012 02:10 18,6 C 77 % 1010,8 hPa 0,0 mm 3,6 km/h (1 Bft) S-SO 202 0 min 0 W/m 14,5 C 18,6 C 7,2 km/h (2 Bft)
25/08/2012 02:20 18,6 C 78 % 1010,7 hPa 0,0 mm 3,2 km/h (1 Bft) S-SO 202 0 min 0 W/m 14,7 C 18,6 C 6,5 km/h (2 Bft)
25/08/2012 02:30 18,4 C 78 % 1010,8 hPa 0,0 mm 5,8 km/h (2 Bft) S 180 0 min 0 W/m 14,5 C 18,4 C 10,1 km/h (2 Bft)
25/08/2012 02:40 18,3 C 79 % 1010,7 hPa 0,0 mm 7,6 km/h (2 Bft) O-SO 247 0 min 0 W/m 14,6 C 18,3 C 11,2 km/h (2 Bft)
25/08/2012 02:50 18,3 C 79 % 1010,8 hPa 0,0 mm 6,1 km/h (2 Bft) S-SO 202 0 min 0 W/m 14,6 C 18,3 C 9,4 km/h (2 Bft)
25/08/2012 03:02 18,2 C 79 % 1010,8 hPa 0,0 mm 6,1 km/h (2 Bft) S-SO 202 0 min 0 W/m 14,5 C 18,2 C 6,1 km/h (2 Bft)
25/08/2012 03:10 18,2 C 80 % 1010,8 hPa 0,0 mm 6,5 km/h (2 Bft) SO 225 0 min 0 W/m 14,7 C 18,2 C 6,5 km/h (2 Bft)
25/08/2012 03:20 18,2 C 80 % 1011,0 hPa 0,0 mm 4,7 km/h (1 Bft) S-SO 202 0 min 0 W/m 14,7 C 18,2 C 8,3 km/h (2 Bft)
25/08/2012 03:30 18,2 C 80 % 1010,9 hPa 0,0 mm 7,2 km/h (2 Bft) SO 225 0 min 0 W/m 14,7 C 18,2 C 13,7 km/h (3 Bft)
25/08/2012 03:40 18,3 C 80 % 1011,0 hPa 0,0 mm 7,9 km/h (2 Bft) S-SO 202 0 min 0 W/m 14,8 C 18,3 C 9,0 km/h (2 Bft)
25/08/2012 03:50 18,3 C 80 % 1011,1 hPa 0,0 mm 6,8 km/h (2 Bft) S-SO 202 0 min 0 W/m 14,8 C 18,3 C 10,4 km/h (2 Bft)
25/08/2012 04:00 18,2 C 80 % 1011,3 hPa 0,0 mm 4,0 km/h (1 Bft) SO 225 0 min 0 W/m 14,7 C 18,2 C 7,2 km/h (2 Bft)
25/08/2012 04:10 18,2 C 79 % 1011,3 hPa 0,0 mm 7,2 km/h (2 Bft) SO 225 0 min 0 W/m 14,5 C 18,2 C 13,3 km/h (3 Bft)
25/08/2012 04:20 18,1 C 79 % 1011,2 hPa 0,0 mm 5,4 km/h (2 Bft) SO 225 0 min 0 W/m 14,4 C 18,1 C 7,2 km/h (2 Bft)
25/08/2012 04:30 18,0 C 80 % 1011,2 hPa 0,0 mm 6,1 km/h (2 Bft) SO 225 0 min 0 W/m 14,5 C 18,0 C 10,1 km/h (2 Bft)
25/08/2012 04:40 17,8 C 80 % 1011,4 hPa 0,0 mm 6,1 km/h (2 Bft) O-SO 247 0 min 0 W/m 14,3 C 17,8 C 7,2 km/h (2 Bft)
25/08/2012 04:50 17,7 C 81 % 1011,4 hPa 0,0 mm 7,6 km/h (2 Bft) SO 225 0 min 0 W/m 14,4 C 17,7 C 9,4 km/h (2 Bft)
25/08/2012 05:00 17,6 C 82 % 1011,6 hPa 0,0 mm 5,4 km/h (2 Bft) SO 225 0 min 0 W/m 14,5 C 17,6 C 7,2 km/h (2 Bft)
25/08/2012 05:10 17,5 C 82 % 1011,3 hPa 0,0 mm 1,8 km/h (1 Bft) SO 225 0 min 0 W/m 14,4 C 17,5 C 4,3 km/h (1 Bft)
25/08/2012 05:20 17,4 C 82 % 1011,4 hPa 0,0 mm 6,5 km/h (2 Bft) SO 225 0 min 0 W/m 14,3 C 17,4 C 9,4 km/h (2 Bft)
25/08/2012 05:30 17,4 C 82 % 1011,3 hPa 0,0 mm 7,2 km/h (2 Bft) S-SO 202 0 min 0 W/m 14,3 C 17,4 C 12,6 km/h (3 Bft)
25/08/2012 05:40 17,4 C 82 % 1011,4 hPa 0,0 mm 4,7 km/h (1 Bft) O-SO 247 0 min 0 W/m 14,3 C 17,4 C 6,8 km/h (2 Bft)
25/08/2012 05:50 17,5 C 83 % 1011,3 hPa 0,0 mm 6,5 km/h (2 Bft) S 180 0 min 0 W/m 14,6 C 17,5 C 6,5 km/h (2 Bft)
25/08/2012 06:00 17,4 C 83 % 1011,2 hPa 0,0 mm 6,5 km/h (2 Bft) O-SO 247 0 min 0 W/m 14,5 C 17,4 C 8,3 km/h (2 Bft)
25/08/2012 06:10 17,3 C 83 % 1011,4 hPa 0,0 mm 6,8 km/h (2 Bft) O 270 0 min 0 W/m 14,4 C 17,3 C 11,5 km/h (2 Bft)
25/08/2012 06:20 17,2 C 84 % 1011,5 hPa 0,0 mm 7,2 km/h (2 Bft) O-SO 247 0 min 0 W/m 14,5 C 17,2 C 11,2 km/h (2 Bft)
25/08/2012 06:30 17,2 C 84 % 1011,4 hPa 0,0 mm 5,8 km/h (2 Bft) S-SE 157 0 min 0 W/m 14,5 C 17,2 C 9,4 km/h (2 Bft)
25/08/2012 06:40 17,2 C 84 % 1011,5 hPa 0,0 mm 5,8 km/h (2 Bft) N 360 0 min 0 W/m 14,5 C 17,2 C 5,8 km/h (2 Bft)
25/08/2012 06:50 17,1 C 84 % 1011,7 hPa 0,0 mm 6,5 km/h (2 Bft) S-SO 202 0 min 0 W/m 14,4 C 17,1 C 6,5 km/h (2 Bft)
25/08/2012 07:00 17,1 C 84 % 1011,6 hPa 0,0 mm 2,5 km/h (1 Bft) SO 225 0 min 0 W/m 14,4 C 17,1 C 6,1 km/h (2 Bft)
25/08/2012 07:10 16,9 C 84 % 1011,7 hPa 0,0 mm 6,8 km/h (2 Bft) S 180 0 min 0 W/m 14,2 C 16,9 C 10,8 km/h (2 Bft)
25/08/2012 07:20 16,8 C 85 % 1012,0 hPa 0,0 mm 4,7 km/h (1 Bft) S-SO 202 0 min 0 W/m 14,3 C 16,8 C 6,1 km/h (2 Bft)
25/08/2012 07:30 16,8 C 85 % 1012,1 hPa 0,0 mm 3,6 km/h (1 Bft) S-SO 202 0 min 0 W/m 14,3 C 16,8 C 8,3 km/h (2 Bft)
25/08/2012 07:40 16,8 C 85 % 1012,0 hPa 0,0 mm 6,1 km/h (2 Bft) O-SO 247 0 min 0 W/m 14,3 C 16,8 C 7,2 km/h (2 Bft)
25/08/2012 07:50 16,8 C 85 % 1011,9 hPa 0,0 mm 6,8 km/h (2 Bft) SO 225 0 min 0 W/m 14,3 C 16,8 C 12,2 km/h (2 Bft)
25/08/2012 08:00 16,7 C 85 % 1012,0 hPa 0,0 mm 1,1 km/h (1 Bft) O-SO 247 0 min 0 W/m 14,2 C 16,7 C 4,3 km/h (1 Bft)
25/08/2012 08:10 16,6 C 85 % 1012,0 hPa 0,0 mm 3,2 km/h (1 Bft) S-SO 202 0 min 0 W/m 14,1 C 16,6 C 7,6 km/h (2 Bft)
25/08/2012 08:20 16,6 C 85 % 1012,1 hPa 0,0 mm 8,6 km/h (2 Bft) S-SO 202 0 min 0 W/m 14,1 C 16,6 C 13,3 km/h (3 Bft)
25/08/2012 08:30 16,8 C 84 % 1012,2 hPa 0,0 mm 4,0 km/h (1 Bft) SO 225 0 min 0 W/m 14,1 C 16,8 C 7,2 km/h (2 Bft)
25/08/2012 08:40 17,1 C 84 % 1012,4 hPa 0,0 mm 7,9 km/h (2 Bft) SO 225 0 min 0 W/m 14,4 C 17,1 C 10,1 km/h (2 Bft)
25/08/2012 08:50 17,4 C 82 % 1012,6 hPa 0,0 mm 5,4 km/h (2 Bft) S-SO 202 0 min 0 W/m 14,3 C 17,4 C 8,6 km/h (2 Bft)
25/08/2012 09:00 17,8 C 81 % 1012,6 hPa 0,0 mm 9,0 km/h (2 Bft) SO 225 0 min 0 W/m 14,5 C 17,8 C 11,5 km/h (2 Bft)
25/08/2012 09:10 18,2 C 80 % 1012,6 hPa 0,0 mm 10,8 km/h (2 Bft) S-SO 202 0 min 0 W/m 14,7 C 18,2 C 10,8 km/h (2 Bft)
25/08/2012 09:20 18,8 C 78 % 1012,9 hPa 0,0 mm 12,2 km/h (2 Bft) SO 225 0 min 0 W/m 14,9 C 18,8 C 13,7 km/h (3 Bft)
25/08/2012 09:30 18,8 C 77 % 1013,0 hPa 0,0 mm 2,5 km/h (1 Bft) SO 225 0 min 0 W/m 14,7 C 18,8 C 6,5 km/h (2 Bft)
25/08/2012 09:40 18,8 C 77 % 1012,9 hPa 0,0 mm 4,3 km/h (1 Bft) SO 225 0 min 0 W/m 14,7 C 18,8 C 7,9 km/h (2 Bft)
25/08/2012 09:50 19,2 C 76 % 1012,9 hPa 0,0 mm 3,2 km/h (1 Bft) SO 225 0 min 0 W/m 14,9 C 19,2 C 4,3 km/h (1 Bft)
25/08/2012 10:00 19,3 C 75 % 1013,1 hPa 0,0 mm 11,9 km/h (2 Bft) O 270 0 min 0 W/m 14,8 C 19,3 C 11,9 km/h (2 Bft)
25/08/2012 10:10 19,8 C 74 % 1013,0 hPa 0,0 mm 6,8 km/h (2 Bft) SO 225 0 min 0 W/m 15,0 C 19,8 C 9,4 km/h (2 Bft)
25/08/2012 10:20 20,6 C 71 % 1013,1 hPa 0,0 mm 9,4 km/h (2 Bft) S 180 0 min 0 W/m 15,2 C 20,6 C 12,2 km/h (2 Bft)
25/08/2012 10:30 21,0 C 69 % 1013,2 hPa 0,0 mm 5,8 km/h (2 Bft) SO 225 0 min 0 W/m 15,1 C 21,0 C 10,8 km/h (2 Bft)
25/08/2012 10:40 21,1 C 68 % 1013,2 hPa 0,0 mm 5,8 km/h (2 Bft) O 270 0 min 0 W/m 15,0 C 21,1 C 5,8 km/h (2 Bft)
25/08/2012 10:50 20,9 C 68 % 1013,4 hPa 0,0 mm 6,8 km/h (2 Bft) SO 225 0 min 0 W/m 14,8 C 20,9 C 13,0 km/h (3 Bft)
25/08/2012 11:00 21,1 C 66 % 1013,4 hPa 0,0 mm 16,6 km/h (3 Bft) O-SO 247 0 min 0 W/m 14,5 C 21,1 C 16,6 km/h (3 Bft)
25/08/2012 11:10 21,8 C 65 % 1013,5 hPa 0,0 mm 7,2 km/h (2 Bft) SO 225 0 min 0 W/m 14,9 C 21,8 C 7,9 km/h (2 Bft)
25/08/2012 11:20 22,8 C 62 % 1013,3 hPa 0,0 mm 12,2 km/h (2 Bft) SO 225 0 min 0 W/m 15,1 C 22,8 C 12,6 km/h (3 Bft)
25/08/2012 11:30 22,3 C 63 % 1013,2 hPa 0,0 mm 13,3 km/h (3 Bft) SO 225 0 min 0 W/m 14,9 C 22,3 C 17,3 km/h (3 Bft)
25/08/2012 11:40 22,0 C 63 % 1013,4 hPa 0,0 mm 6,5 km/h (2 Bft) SO 225 0 min 0 W/m 14,6 C 22,0 C 10,8 km/h (2 Bft)
25/08/2012 11:50 21,8 C 63 % 1013,3 hPa 0,0 mm 4,0 km/h (1 Bft) O-SO 247 0 min 0 W/m 14,4 C 21,8 C 10,8 km/h (2 Bft)
25/08/2012 12:00 22,1 C 62 % 1013,3 hPa 0,0 mm 10,8 km/h (2 Bft) S-SO 202 0 min 0 W/m 14,5 C 22,1 C 13,3 km/h (3 Bft)
25/08/2012 12:10 22,8 C 60 % 1013,4 hPa 0,0 mm 9,0 km/h (2 Bft) O 270 0 min 0 W/m 14,6 C 22,8 C 14,8 km/h (3 Bft)
25/08/2012 12:20 23,0 C 58 % 1013,4 hPa 0,0 mm 10,8 km/h (2 Bft) SO 225 0 min 0 W/m 14,3 C 23,0 C 13,0 km/h (3 Bft)
25/08/2012 12:30 23,2 C 57 % 1013,3 hPa 0,0 mm 9,7 km/h (2 Bft) SO 225 0 min 0 W/m 14,2 C 23,2 C 13,3 km/h (3 Bft)
25/08/2012 12:40 23,5 C 55 % 1013,2 hPa 0,0 mm 3,2 km/h (1 Bft) O-SO 247 0 min 0 W/m 13,9 C 23,5 C 8,6 km/h (2 Bft)
25/08/2012 12:50 23,5 C 55 % 1013,4 hPa 0,0 mm 6,8 km/h (2 Bft) SO 225 0 min 0 W/m 13,9 C 23,5 C 11,5 km/h (2 Bft)
25/08/2012 13:00 22,8 C 59 % 1013,8 hPa 0,0 mm 3,6 km/h (1 Bft) O 270 0 min 0 W/m 14,4 C 22,8 C 17,3 km/h (3 Bft)
25/08/2012 13:10 22,4 C 61 % 1013,6 hPa 0,0 mm 3,6 km/h (1 Bft) O 270 0 min 0 W/m 14,5 C 22,4 C 3,6 km/h (1 Bft)
25/08/2012 13:20 23,1 C 59 % 1013,6 hPa 0,0 mm 10,1 km/h (2 Bft) S-SO 202 0 min 0 W/m 14,6 C 23,1 C 11,9 km/h (2 Bft)
25/08/2012 13:30 23,7 C 56 % 1013,5 hPa 0,0 mm 9,4 km/h (2 Bft) SO 225 0 min 0 W/m 14,4 C 23,7 C 13,0 km/h (3 Bft)
25/08/2012 13:40 24,0 C 54 % 1013,5 hPa 0,0 mm 10,1 km/h (2 Bft) SO 225 0 min 0 W/m 14,1 C 24,0 C 15,5 km/h (3 Bft)
25/08/2012 13:50 23,8 C 53 % 1013,5 hPa 0,0 mm 11,5 km/h (2 Bft) SO 225 0 min 0 W/m 13,6 C 23,8 C 18,0 km/h (3 Bft)
25/08/2012 14:00 24,1 C 51 % 1013,5 hPa 0,0 mm 10,1 km/h (2 Bft) S-SO 202 0 min 0 W/m 13,3 C 24,1 C 13,7 km/h (3 Bft)
25/08/2012 14:10 23,8 C 50 % 1013,6 hPa 0,0 mm 7,9 km/h (2 Bft) O-SO 247 0 min 0 W/m 12,7 C 23,8 C 11,5 km/h (2 Bft)
25/08/2012 14:20 23,2 C 55 % 1013,7 hPa 0,0 mm 3,2 km/h (1 Bft) SO 225 0 min 0 W/m 13,6 C 23,2 C 6,5 km/h (2 Bft)
25/08/2012 14:30 23,4 C 55 % 1013,7 hPa 0,0 mm 7,2 km/h (2 Bft) O-SO 247 0 min 0 W/m 13,8 C 23,4 C 12,2 km/h (2 Bft)
25/08/2012 14:40 23,8 C 52 % 1013,7 hPa 0,0 mm 15,8 km/h (3 Bft) O-SO 247 0 min 0 W/m 13,3 C 23,8 C 25,9 km/h (4 Bft)
25/08/2012 14:50 24,1 C 53 % 1014,0 hPa 0,0 mm 6,5 km/h (2 Bft) SO 225 0 min 0 W/m 13,9 C 24,1 C 12,6 km/h (3 Bft)
25/08/2012 15:00 24,3 C 51 % 1014,0 hPa 0,0 mm 7,6 km/h (2 Bft) SO 225 0 min 0 W/m 13,5 C 24,3 C 12,6 km/h (3 Bft)
25/08/2012 15:10 24,1 C 50 % 1013,9 hPa 0,0 mm 6,8 km/h (2 Bft) O-SO 247 0 min 0 W/m 13,0 C 24,1 C 8,6 km/h (2 Bft)
25/08/2012 15:20 23,8 C 51 % 1014,1 hPa 0,0 mm 6,1 km/h (2 Bft) O-SO 247 0 min 0 W/m 13,0 C 23,8 C 10,8 km/h (2 Bft)
25/08/2012 15:30 23,1 C 52 % 1014,2 hPa 0,0 mm 11,5 km/h (2 Bft) SO 225 0 min 0 W/m 12,7 C 23,1 C 20,9 km/h (4 Bft)
25/08/2012 15:40 22,8 C 53 % 1014,3 hPa 0,0 mm 6,1 km/h (2 Bft) SO 225 0 min 0 W/m 12,7 C 22,8 C 9,7 km/h (2 Bft)
25/08/2012 15:50 22,9 C 52 % 1014,3 hPa 0,0 mm 7,6 km/h (2 Bft) O-SO 247 0 min 0 W/m 12,5 C 22,9 C 10,8 km/h (2 Bft)
25/08/2012 16:00 22,8 C 52 % 1014,4 hPa 0,0 mm 10,1 km/h (2 Bft) O-NO 292 0 min 0 W/m 12,4 C 22,8 C 20,5 km/h (4 Bft)
25/08/2012 16:10 22,9 C 52 % 1014,3 hPa 0,0 mm 7,2 km/h (2 Bft) O-SO 247 0 min 0 W/m 12,5 C 22,9 C 9,4 km/h (2 Bft)
25/08/2012 16:20 22,8 C 53 % 1014,3 hPa 0,0 mm 7,9 km/h (2 Bft) O-SO 247 0 min 0 W/m 12,7 C 22,8 C 13,3 km/h (3 Bft)
25/08/2012 16:30 22,8 C 53 % 1014,4 hPa 0,0 mm 10,4 km/h (2 Bft) O-SO 247 0 min 0 W/m 12,7 C 22,8 C 12,6 km/h (3 Bft)
25/08/2012 16:40 22,7 C 53 % 1014,3 hPa 0,0 mm 10,8 km/h (2 Bft) S-SO 202 0 min 0 W/m 12,6 C 22,7 C 16,9 km/h (3 Bft)
25/08/2012 16:50 22,9 C 52 % 1014,4 hPa 0,0 mm 7,2 km/h (2 Bft) O 270 0 min 0 W/m 12,5 C 22,9 C 12,2 km/h (2 Bft)
25/08/2012 17:00 22,8 C 50 % 1014,3 hPa 0,0 mm 10,4 km/h (2 Bft) O-SO 247 0 min 0 W/m 11,8 C 22,8 C 22,0 km/h (4 Bft)
25/08/2012 17:10 22,8 C 49 % 1014,4 hPa 0,0 mm 10,1 km/h (2 Bft) O-SO 247 0 min 0 W/m 11,5 C 22,8 C 13,0 km/h (3 Bft)
25/08/2012 17:20 23,1 C 47 % 1014,4 hPa 0,0 mm 13,7 km/h (3 Bft) O 270 0 min 0 W/m 11,2 C 23,1 C 30,2 km/h (5 Bft)
25/08/2012 17:30 22,6 C 48 % 1014,6 hPa 0,0 mm 5,8 km/h (2 Bft) O-SO 247 0 min 0 W/m 11,0 C 22,6 C 12,2 km/h (2 Bft)
25/08/2012 17:40 22,3 C 48 % 1014,6 hPa 0,0 mm 10,1 km/h (2 Bft) S 180 0 min 0 W/m 10,8 C 22,3 C 12,2 km/h (2 Bft)
25/08/2012 17:50 22,5 C 48 % 1014,6 hPa 0,0 mm 9,7 km/h (2 Bft) S-SO 202 0 min 0 W/m 10,9 C 22,5 C 16,6 km/h (3 Bft)
25/08/2012 18:00 22,2 C 48 % 1014,8 hPa 0,0 mm 16,2 km/h (3 Bft) O-NO 292 0 min 0 W/m 10,7 C 22,2 C 31,3 km/h (5 Bft)
25/08/2012 18:10 22,0 C 48 % 1014,7 hPa 0,0 mm 9,7 km/h (2 Bft) O-SO 247 0 min 0 W/m 10,5 C 22,0 C 14,8 km/h (3 Bft)
25/08/2012 18:20 21,9 C 47 % 1014,8 hPa 0,0 mm 5,0 km/h (1 Bft) O 270 0 min 0 W/m 10,1 C 21,9 C 16,6 km/h (3 Bft)
25/08/2012 18:30 22,3 C 46 % 1014,8 hPa 0,0 mm 10,4 km/h (2 Bft) O-SO 247 0 min 0 W/m 10,1 C 22,3 C 15,8 km/h (3 Bft)
25/08/2012 18:40 22,4 C 46 % 1014,9 hPa 0,0 mm 8,6 km/h (2 Bft) O 270 0 min 0 W/m 10,2 C 22,4 C 14,8 km/h (3 Bft)
25/08/2012 18:50 22,4 C 46 % 1015,0 hPa 0,0 mm 9,0 km/h (2 Bft) SO 225 0 min 0 W/m 10,2 C 22,4 C 13,0 km/h (3 Bft)
25/08/2012 19:00 21,9 C 48 % 1015,1 hPa 0,0 mm 11,2 km/h (2 Bft) O-NO 292 0 min 0 W/m 10,4 C 21,9 C 15,5 km/h (3 Bft)
25/08/2012 19:10 21,5 C 50 % 1015,1 hPa 0,0 mm 5,0 km/h (1 Bft) S-SO 202 0 min 0 W/m 10,6 C 21,5 C 11,9 km/h (2 Bft)
25/08/2012 19:20 21,4 C 51 % 1015,2 hPa 0,0 mm 5,8 km/h (2 Bft) O-SO 247 0 min 0 W/m 10,8 C 21,4 C 19,1 km/h (3 Bft)
25/08/2012 19:30 21,1 C 52 % 1015,3 hPa 0,0 mm 2,5 km/h (1 Bft) O-SO 247 0 min 0 W/m 10,9 C 21,1 C 4,0 km/h (1 Bft)
25/08/2012 19:40 20,9 C 53 % 1015,4 hPa 0,0 mm 8,6 km/h (2 Bft) O-SO 247 0 min 0 W/m 11,0 C 20,9 C 14,0 km/h (3 Bft)
25/08/2012 19:50 20,8 C 51 % 1015,5 hPa 0,0 mm 4,3 km/h (1 Bft) N-NE 22 0 min 0 W/m 10,3 C 20,8 C 10,1 km/h (2 Bft)
25/08/2012 20:00 20,5 C 51 % 1015,7 hPa 0,0 mm 9,4 km/h (2 Bft) O 270 0 min 0 W/m 10,0 C 20,5 C 13,0 km/h (3 Bft)
25/08/2012 20:10 20,2 C 52 % 1015,8 hPa 0,0 mm 9,0 km/h (2 Bft) SO 225 0 min 0 W/m 10,0 C 20,2 C 14,0 km/h (3 Bft)
25/08/2012 20:20 19,8 C 53 % 1015,9 hPa 0,0 mm 4,0 km/h (1 Bft) SO 225 0 min 0 W/m 9,9 C 19,8 C 11,5 km/h (2 Bft)
25/08/2012 20:30 19,4 C 54 % 1016,0 hPa 0,0 mm 5,4 km/h (2 Bft) S-SE 157 0 min 0 W/m 9,8 C 19,4 C 12,6 km/h (3 Bft)
25/08/2012 20:40 19,0 C 55 % 1016,1 hPa 0,0 mm 5,4 km/h (2 Bft) O 270 0 min 0 W/m 9,8 C 19,0 C 5,4 km/h (2 Bft)
25/08/2012 20:50 18,6 C 57 % 1016,3 hPa 0,0 mm 7,2 km/h (2 Bft) O-SO 247 0 min 0 W/m 9,9 C 18,6 C 9,7 km/h (2 Bft)
25/08/2012 21:00 18,3 C 58 % 1016,4 hPa 0,0 mm 1,8 km/h (1 Bft) SO 225 0 min 0 W/m 9,9 C 18,3 C 7,9 km/h (2 Bft)
25/08/2012 21:10 18,0 C 60 % 1016,5 hPa 0,0 mm 1,8 km/h (1 Bft) S-SO 202 0 min 0 W/m 10,1 C 18,0 C 3,6 km/h (1 Bft)
25/08/2012 21:20 17,6 C 61 % 1016,7 hPa 0,0 mm 1,8 km/h (1 Bft) S-SO 202 0 min 0 W/m 10,0 C 17,6 C 5,8 km/h (2 Bft)
25/08/2012 21:30 17,4 C 62 % 1016,8 hPa 0,0 mm 3,6 km/h (1 Bft) S-SO 202 0 min 0 W/m 10,0 C 17,4 C 7,9 km/h (2 Bft)
25/08/2012 21:40 17,1 C 63 % 1017,0 hPa 0,0 mm 1,1 km/h (1 Bft) S-SO 202 0 min 0 W/m 10,0 C 17,1 C 3,6 km/h (1 Bft)
25/08/2012 21:50 16,9 C 64 % 1017,1 hPa 0,0 mm 4,0 km/h (1 Bft) S-SO 202 0 min 0 W/m 10,0 C 16,9 C 4,0 km/h (1 Bft)
25/08/2012 22:00 16,9 C 65 % 1017,2 hPa 0,0 mm 5,8 km/h (2 Bft) O-SO 247 0 min 0 W/m 10,3 C 16,9 C 5,8 km/h (2 Bft)
25/08/2012 22:10 16,8 C 65 % 1017,4 hPa 0,0 mm 5,8 km/h (2 Bft) S 180 0 min 0 W/m 10,2 C 16,8 C 8,6 km/h (2 Bft)
25/08/2012 22:20 16,8 C 66 % 1017,3 hPa 0,0 mm 1,1 km/h (1 Bft) S-SO 202 0 min 0 W/m 10,4 C 16,8 C 6,8 km/h (2 Bft)
25/08/2012 22:30 16,6 C 66 % 1017,5 hPa 0,0 mm 5,4 km/h (2 Bft) O-SO 247 0 min 0 W/m 10,2 C 16,6 C 12,6 km/h (3 Bft)
25/08/2012 22:40 16,6 C 67 % 1017,5 hPa 0,0 mm 4,3 km/h (1 Bft) O 270 0 min 0 W/m 10,4 C 16,6 C 7,2 km/h (2 Bft)
25/08/2012 22:50 16,6 C 68 % 1017,6 hPa 0,0 mm 1,4 km/h (1 Bft) O 270 0 min 0 W/m 10,7 C 16,6 C 2,9 km/h (1 Bft)
25/08/2012 23:00 16,7 C 68 % 1017,6 hPa 0,0 mm 5,0 km/h (1 Bft) SO 225 0 min 0 W/m 10,8 C 16,7 C 15,1 km/h (3 Bft)
_ Min-Heure 22:50 18:50 00:40 - 22:20 - - - - 20:40 22:50 22:50
Minimum _ 16,6 C 46 % 1010,6 hPa - 1,1 km/h (1 Bft) - - - - 9,8 C 16,6 C 2,9 km/h (1 Bft)
_ Max-Heure 15:00 08:20 23:00 23:00 11:00 - - 23:00 23:00 10:20 15:00 18:00
Maximum _ 24,3 C 85 % 1017,6 hPa 0,0 mm 16,6 km/h
O-SO (3 Bft)
- - 0 min 0 W/m 15,2 C 24,3 C 31,3 km/h
O-NO (5 Bft)
Moyenne _ 19,9 C 67 % 1013,3 hPa #0,0 mm 6,8 km/h (2 Bft) SO - #0 min. 0 W/m 13,2 C 19,9 C 10,8 km/h (2 Bft)
Saint Bonnet de Bellac- Haute Vienne - France